2P/Encke (2020)

Japanese version
Home page
Updated on July 27, 2020

---------------------------------------------------------------------

* Profile

* Pictures

* Orbital Elements

Epoch 2020 May 31.0 TT = JDT 2459000.5
T 2020 June 25.84643 TT                                 Rudenko
q   0.3367198            (2000.0)            P               Q
n   0.29892057     Peri.  186.56218     -0.94513484     -0.31471346
a   2.2152981      Node   334.55216     +0.30822874     -0.77022900
e   0.8480025      Incl.   11.76467     +0.10823670     -0.55470958
P   3.30
From 2606 observations 2013 July 13-2020 July 14, mean residual 0".8.
     Nongravitational parameters A1 = -0.02, A2 = +0.0003.

* Finding Charts

* Magnitudes Graph

        H = 14.2  G = 0.15                [   ,-97]  (             - 2020 Mar. 20)
        m1 =  9.8 + 5 log d + 25   log r  [-97,-45]  (2020 Mar. 20 - 2020 May  11)
        m1 = 10.3 + 5 log d +  7.0 log r  [-45, 20]  (2020 May  11 - 2020 July 15)
        m1 = 12.3 + 5 log d + 15.7 log r  [ 20,115]  (2020 July 15 - 2020 Oct. 18)
        H = 14.2  G = 0.15                [115,   ]  (2020 Oct. 18 -             )

---------------------------------------------------------------------

The orbital elements are published on M.P.E.C. 2020-O07.
The charts are made with StellaNavigator Ver.10 (AstroArts).
The magnitudes graphs are made with Comet for Windows.

---------------------------------------------------------------------

Copyright(C) Seiichi Yoshida (comet@aerith.net). All rights reserved.